STARLINK-4668 (53596 NORAD) Tracking and Keplerian Element Data

This shows tracking and keplerian element data for the satellite.

Feedback or suggestion? Click here.




ElementValue
Catalog53596
NameSTARLINK-4668
Epoch Orbit1309
Epoch Day325.25001157
Epoch Year2022
RAAN250.9533
Inclination53.2179
Eccentricity0.0001522
Argument of Perigee68.6206
Mean Anonmoly47.5535
Mean Motion15.08802805
Decay Rate0.0005614
L11 53596U 22104J 22325.25001157 .00056140 00000+0 35211-2 0 9991
L22 53596 53.2179 250.9533 0001522 68.6206 47.5535 15.08802805 13091



Live tracking and technical data element details for STARLINK-4668 (NORAD 53596). STARLINK-4668 can be tracked NOW for your location showing map with azimuth and elevation plus other details from your city location.







IsCatalogInMostPopularTable: catalog: 53596, numindb: 1
Update: records affected: 1



GetName: 53596 STARLINK-4668

Hit Count: updated at: Tue, 29 Nov 2022 02:02:33 GMT